Regional Weather Roundup
Issued by NWS

Home | Current Version | Previous Version | Text Only | Print | Product List | Glossary On
Versions: 1 2 3 4 5 6 7 8 9 10 11 12 13 14 15 16 17 18 19 20 21 22 23 24 25 26 27 28 29 30 31 32 33 34 35 36 37 38 39 40 41 42 43 44 45 46 47 48 49 50
000
ASUS45 KPSR 250310
RWRAZ

ARIZONA HOURLY REGIONAL WEATHER ROUNDUP
NATIONAL WEATHER SERVICE PHOENIX AZ
800 PM MST TUE APR 24 2018

NOTE: FAIR INDICATES FEW OR NO CLOUDS BELOW 12,000 FEET WITH NO
SIGNIFICANT WEATHER AND/OR OBSTRUCTIONS TO VISIBILITY.

AZZ001>003-036-250400-
NORTHWEST ARIZONA

CITY           SKY/WX    TMP DP  RH WIND       PRES   REMARKS
BULLHEAD CITY  MOCLDY    95  19   6 S12       29.80R
KINGMAN        PTCLDY    78  19  11 NW6       30.00R
$$

AZZ004>008-015-016-018-250400-
NORTH CENTRAL ARIZONA

CITY           SKY/WX    TMP DP  RH WIND       PRES   REMARKS
GRAND CANYON   PTCLDY    51  15  23 CALM      30.18R
WILLIAMS       PTCLDY    64  12  13 SW10      30.17R
PRESCOTT       MOCLDY    70  16  12 W8        30.10R
FLAGSTAFF      MOCLDY    58  19  22 SW10      30.20R
PAGE           PTCLDY    74  26  16 NE7       30.03R
$$

AZZ009>014-017-250400-
NORTHEAST ARIZONA

CITY           SKY/WX    TMP DP  RH WIND       PRES   REMARKS
WINSLOW        PTCLDY    72  17  12 SW12      30.04R
SAINT JOHNS    MOCLDY    69   3   7 SW12      30.08R
WINDOW ROCK    MOCLDY    63   8  11 CALM      30.15R
SHOW LOW       PTCLDY    64   5   9 SW10      30.18R
$$

AZZ540-542>544-546-548-250400-
GREATER PHOENIX AREA

CITY           SKY/WX    TMP DP  RH WIND       PRES   REMARKS
PHOENIX        MOCLDY    92  20   7 W8        29.83R
BUCKEYE        PTCLDY    84  23  10 W8        29.85R
GLENDALE       MOCLDY    90  23   9 CALM      29.85R
DEER VALLEY    MOCLDY    86  24  10 SW5       29.86R
SCOTTSDALE     MOCLDY    88  27  11 CALM      29.88R
MESA-FALCON    MOCLDY    88  27  11 W5        29.87R
MESA-GATEWAY   PTCLDY    88  25  10 N7        29.88R
CHANDLER       CLEAR     90  21   8 W8        29.86R
$$

AZZ539-553-250400-
SOUTHWEST MARICOPA COUNTY AND PINAL COUNTY

CITY           SKY/WX    TMP DP  RH WIND       PRES   REMARKS
CASA GRANDE    MOCLDY    85  22  10 W10       29.88
$$

AZZ503-504-507>509-250400-
SOUTHEAST ARIZONA

CITY           SKY/WX    TMP DP  RH WIND       PRES   REMARKS
TUCSON         PTCLDY    82  20  10 W13       29.97R
RYAN FIELD     CLEAR     81  19  10 SW8       29.96R
NOGALES        CLOUDY    74  12   9 SW3       30.06R
DOUGLAS        MOCLDY    70  18  13 N9        30.05R
SAFFORD        PTCLDY    82  11   7 NW13      29.94R
$$

AZZ532-250400-
SOUTHWEST ARIZONA

CITY           SKY/WX    TMP DP  RH WIND       PRES   REMARKS
YUMA           CLOUDY    86  42  21 W7        29.83R
$$

CAZ041-043-047-048-061-525>527-560>570-250400-
SOUTHERN CALIFORNIA

CITY           SKY/WX    TMP DP  RH WIND       PRES   REMARKS
DOWNTOWN L.A.  CLEAR     59  52  77 VRB3      29.99R
L.A. AIRPORT   PTCLDY    57  51  80 W7        30.00S
SAN DIEGO      MOCLDY    59  53  80 NW7       30.03R
BURBANK        CLEAR     67  48  50 SE7       29.98R
ONTARIO        MOCLDY    69  47  45 SW7       29.99R
RIVERSIDE      MOCLDY    70  34  26 W6        29.99R
PALM SPRINGS   MOCLDY    89  33  13 NW17G24   29.84R
EL CENTRO NAS  MOCLDY    88  32  13 W9        29.83R
IMPERIAL       PTCLDY    87  44  22 S9        29.80R
BLYTHE         MOCLDY    92  25   9 SW8       29.81R
NEEDLES        MOCLDY    93  14   5 W8        29.83R
$$

NVZ020-UTZ003-250400-
SOUTHERN NEVADA-UTAH

CITY           SKY/WX    TMP DP  RH WIND       PRES   REMARKS
LAS VEGAS      MOCLDY    87  24  10 E6        29.90R
SALT LAKE CITY PTCLDY    54  42  64 W7        30.24R
$$

NMZ009-TXZ055-250400-
NEW MEXICO-WEST TEXAS

CITY           SKY/WX    TMP DP  RH WIND       PRES   REMARKS
ALBUQUERQUE    MOCLDY    63  37  38 E26G40    30.07R
EL PASO        MOCLDY    81  18   9 W5        29.98R
$$


........................KEY........................
SKY/WX - SKY CONDITION/WEATHER
TMP    - TEMPERATURE IN FAHRENHEIT
DP     - DEW POINT IN FAHRENHEIT
RH     - RELATIVE HUMIDITY IN PERCENT
WIND   - DIRECTION AND SPEED IN MILES PER HOUR (MPH)
VRB    - VARIABLE WIND DIRECTION
PRES   - MEAN SEA LEVEL PRESSURE IN INCHES OF MERCURY
         F - FALLING PRESSURE   R - RISING PRESSURE
         S - STEADY PRESSURE
VSB    - VISIBILITY IN MILES
HX     - HEAT INDEX IN FAHRENHEIT
WCI    - WIND CHILL INDEX IN FAHRENHEIT
TC     - TEMPERATURE IN CELSIUS WHICH IS ALSO KNOWN AS
         TEMPERATURE IN CENTIGRADE
AFB    - AIR FORCE BASE
         LUKE AFB IS LUKE AIR FORCE BASE
         DAVIS-MONTHAN IS DAVIS-MONTHAN AIR FORCE BASE
NAS    - NAVAL AIR STATION
         EL CENTRO NAS IS EL CENTRO NAVAL AIR STATION
N/A    - NOT AVAILABLE




USA.gov is the U.S. government's official web portal to all federal, state and local government web resources and services.